• Join FlightAware (Why Join?)
  • Login
  • US Flag 
02:45PM EDT


 

Airport Tracker/Info


-or-


 

Live Flight TrackerFlight Track Log ✈ N523JM ✈ 26-May-2013 ✈ KMTJ - KOSU

Flight Track Log - Related Links

Times and Time Zones

All times are in EDT time to prevent confusion due to time zone crossing. See the N523JM flight status page for this flight to view local times or setup timezone preferences in your user account.

Time Position Orientation Groundspeed Altitude Reporting Facility
EDT Latitude Longitude Course Direction KTS MPH feet Rate Location/Type
06:36PM 38.5322 -107.8922 78° East 201 231 5,900  Level Denver Center
06:37PM 38.5539 -107.9453 298° West 237 273 8,000 1,980 Climbing Denver Center
06:38PM 38.4981 -107.9261 165° South 250 288 10,000 1,920 Climbing Denver Center
06:39PM 38.4975 -107.8197 90° East 307 353 12,000 2,040 Climbing Denver Center
06:40PM 38.4555 -106.9338 78° East  Level FlightAware Approximate
06:40PM 38.4956 -107.6992 91° East 333 383 14,300  Level Denver Center
06:41PM 38.4814 -106.7783 78° East  Level FlightAware Approximate
06:41PM 38.4856 -107.5731 96° East 349 402 16,700  Level Denver Center
06:42PM 38.4772 -107.4392 95° East 366 421 18,300 1,680 Climbing Denver Center
06:43PM 38.4686 -107.2792 94° East 394 453 20,200 1,560 Climbing Denver Center
06:44PM 38.4603 -107.1419 94° East 411 473 21,600 1,500 Climbing Denver Center
06:45PM 38.4603 -106.9603 90° East 440 506 23,300 1,380 Climbing Denver Center
06:46PM 38.4833 -106.8358 77° East 438 504 24,500 1,260 Climbing Denver Center
06:47PM 38.5078 -106.6797 79° East 445 512 26,000 1,500 Climbing Denver Center
06:48PM 38.5361 -106.4925 79° East 449 517 27,600 1,320 Climbing Denver Center
06:49PM 38.5606 -106.3328 79° East 458 527 28,800 1,140 Climbing Denver Center
06:50PM 38.5850 -106.1697 79° East 465 535 30,000 1,260 Climbing Denver Center
06:51PM 38.6117 -106.0003 79° East 467 537 31,400 1,140 Climbing Denver Center
06:52PM 38.6350 -105.8431 79° East 468 539 32,400 900 Climbing Denver Center
06:53PM 38.6625 -105.6586 79° East 472 543 33,500 1,020 Climbing Denver Center
06:54PM 38.6881 -105.4728 80° East 474 545 34,700 1,080 Climbing Denver Center
06:55PM 38.7169 -105.2861 79° East 477 549 35,800 840 Climbing Denver Center
06:56PM 38.7389 -105.1281 80° East 473 544 36,500 540 Climbing Denver Center
06:57PM 38.7631 -104.9442 80° East 470 541 37,000 240 Climbing Denver Center
06:58PM 38.7861 -104.7814 80° East 476 548 37,000  Level Denver Center
06:59PM 38.8067 -104.6161 81° East 485 558 37,000  Level Denver Center
07:01PM 38.8342 -104.4142 80° East 502 578 37,000  Level Denver Center
07:02PM 38.8578 -104.2375 80° East 516 594 37,000  Level Denver Center
07:03PM 38.8847 -104.0317 80° East 520 598 37,000  Level Denver Center
07:04PM 38.9081 -103.8528 80° East 527 606 37,000  Level Denver Center
07:05PM 38.9389 -103.6103 81° East 537 618 37,000  Level Denver Center
07:06PM 38.9619 -103.4286 81° East 538 619 37,000  Level Denver Center
07:07PM 38.9842 -103.2475 81° East 536 617 37,000  Level Denver Center
07:08PM 39.0108 -103.0344 81° East 538 619 37,000  Level Denver Center
07:09PM 39.0319 -102.8528 81° East 536 617 37,000  Level Denver Center
07:10PM 39.0569 -102.6472 81° East 533 613 37,000  Level Denver Center
07:11PM 39.0781 -102.4653 81° East 536 617 37,000  Level Denver Center
07:12PM 39.1019 -102.2544 82° East 534 615 37,000  Level Denver Center
07:13PM 39.1222 -102.0725 82° East 537 618 37,000  Level Denver Center
07:14PM 39.1433 -101.8917 81° East 535 616 37,000  Level Denver Center
07:15PM 39.1661 -101.6822 82° East 537 618 37,000  Level Denver Center
07:16PM 39.1856 -101.5017 82° East 534 615 37,000  Level Denver Center
07:17PM 39.2075 -101.2908 82° East 533 613 37,000  Level Denver Center
07:18PM 39.2269 -101.1131 82° East 528 608 37,000  Level Denver Center
07:19PM 39.2483 -100.9042 82° East 529 609 37,000  Level Denver Center
07:20PM 39.2667 -100.7247 82° East 527 606 37,000  Level Denver Center
07:21PM 39.2842 -100.5464 83° East 526 605 37,000  Level Denver Center
07:22PM 39.3044 -100.3389 83° East 525 604 37,000  Level Denver Center
07:23PM 39.3222 -100.1594 83° East 527 606 37,000  Level Denver Center
07:24PM 39.3442 -99.9225 83° East 524 603 37,000  Level Denver Center
07:26PM 39.3603 -99.7478 83° East 517 595 37,000  Level Denver Center
07:27PM 39.3789 -99.5494 83° East 503 579 37,000  Level Denver Center
07:28PM 39.3944 -99.3800 83° East 498 573 37,000  Level Denver Center
07:29PM 39.4111 -99.1819 84° East 496 571 37,000  Level Denver Center
07:30PM 39.4258 -99.0122 84° East 497 572 37,000  Level Denver Center
07:31PM 39.4406 -98.8344 84° East 493 567 37,000  Level Denver Center
07:32PM 39.4556 -98.6572 84° East 495 570 37,000  Level Denver Center
07:32PM 39.4672 -98.5142 84° East 496 571 37,000  Level Kansas City Center
07:33PM 39.4819 -98.3381 84° East 494 568 37,000  Level Kansas City Center
07:34PM 39.4942 -98.1733 84° East 491 565 37,000  Level Kansas City Center
07:35PM 39.5081 -97.9978 84° East 489 563 37,000  Level Kansas City Center
07:37PM 39.5261 -97.7797 84° East 487 560 37,000  Level Kansas City Center
07:38PM 39.5375 -97.6056 85° East 487 560 37,000  Level Kansas City Center
07:39PM 39.5508 -97.4328 84° East 485 558 37,000  Level Kansas City Center
07:40PM 39.5631 -97.2583 85° East 486 559 37,000  Level Kansas City Center
07:41PM 39.5744 -97.0875 85° East 490 564 37,000  Level Kansas City Center
07:42PM 39.5856 -96.9117 85° East 491 565 37,000  Level Kansas City Center
07:43PM 39.5989 -96.7258 85° East 486 559 37,000  Level Kansas City Center
07:44PM 39.6103 -96.5325 86° East 481 554 37,000  Level Kansas City Center
07:45PM 39.6214 -96.3681 85° East 479 551 37,000  Level Kansas City Center
07:46PM 39.6308 -96.2031 86° East 478 550 37,000 240 Level Kansas City Center
07:47PM 39.6428 -96.0122 85° East 476 548 37,500 600 Climbing Kansas City Center
07:48PM 39.6525 -95.8542 85° East 462 532 38,300 660 Climbing Kansas City Center
07:49PM 39.6622 -95.6692 86° East 460 529 38,900 300 Climbing Kansas City Center
07:50PM 39.6717 -95.5119 85° East 456 525 39,000  Climbing Kansas City Center
07:51PM 39.6808 -95.3511 86° East 462 532 39,000  Level Kansas City Center
07:52PM 39.6903 -95.1619 86° East 467 537 39,000  Level Kansas City Center
07:53PM 39.6983 -94.9994 86° East 469 540 39,000  Level Kansas City Center
07:54PM 39.7092 -94.8092 86° East 469 540 39,000  Level Kansas City Center
07:55PM 39.7169 -94.6467 86° East 470 541 39,000  Level Kansas City Center
07:56PM 39.7244 -94.4831 87° East 472 543 39,000  Level Kansas City Center
07:57PM 39.7339 -94.2917 86° East 475 547 39,000  Level Kansas City Center
07:58PM 39.7406 -94.1289 87° East 473 544 39,000  Level Kansas City Center
07:59PM 39.7492 -93.9342 87° East 476 548 39,000  Level Kansas City Center
08:00PM 39.7556 -93.7731 87° East 476 548 39,000  Level Kansas City Center
08:01PM 39.7619 -93.6122 87° East 482 555 39,000  Level Kansas City Center
08:02PM 39.7678 -93.4411 87° East 480 552 39,000  Level Kansas City Center
08:03PM 39.7764 -93.2403 87° East 475 547 39,000  Level Kansas City Center
08:04PM 39.7811 -93.0689 88° East 478 550 39,000  Level Kansas City Center
08:05PM 39.7867 -92.8931 88° East 489 563 39,000  Level Kansas City Center
08:06PM 39.7911 -92.7211 88° East 488 562 39,000  Level Kansas City Center
08:07PM 39.7967 -92.5486 88° East 486 559 39,000  Level Kansas City Center
08:08PM 39.8025 -92.3419 88° East 485 558 39,000  Level Kansas City Center
08:09PM 39.8067 -92.1700 88° East 484 557 39,000  Level Kansas City Center
08:10PM 39.8111 -91.9964 88° East 486 559 39,000  Level Kansas City Center
08:11PM 39.8156 -91.8214 88° East 489 563 39,000  Level Kansas City Center
08:12PM 39.8203 -91.6464 88° East 490 564 39,000  Level Kansas City Center
08:13PM 39.8250 -91.4372 88° East 489 563 39,000  Level Kansas City Center
08:14PM 39.8267 -91.2603 89° East 492 566 39,000  Level Kansas City Center
08:16PM 39.8292 -91.0825 89° East 495 570 39,000  Level Kansas City Center
08:17PM 39.8328 -90.9153 88° East 494 568 39,000  Level Kansas City Center
08:18PM 39.8367 -90.7369 88° East 494 568 39,000  Level Kansas City Center
08:19PM 39.8392 -90.5219 89° East 497 572 39,000  Level Kansas City Center
08:20PM 39.8411 -90.3436 89° East 496 571 39,000  Level Kansas City Center
08:21PM 39.8428 -90.1639 89° East 498 573 39,000  Level Kansas City Center
08:22PM 39.8442 -89.9842 89° East 499 574 39,000  Level Kansas City Center
08:23PM 39.8444 -89.8047 90° East 499 574 39,000  Level Kansas City Center
08:24PM 39.8464 -89.6269 89° East 497 572 39,000  Level Kansas City Center
08:25PM 39.8472 -89.4475 90° East 497 572 39,000  Level Kansas City Center
08:26PM 39.8467 -89.2678 90° East 498 573 39,000  Level Kansas City Center
08:27PM 39.8469 -89.0511 90° East 501 577 39,000  Level Kansas City Center
08:28PM 39.8475 -88.8686 90° East 504 580 39,000  Level Kansas City Center
08:29PM 39.8464 -88.6856 90° East 507 583 39,000  Level Kansas City Center
08:30PM 39.8461 -88.5022 90° East 508 585 39,000  Level Kansas City Center
08:31PM 39.8472 -88.3186 89° East 508 585 39,000  Level Kansas City Center
08:32PM 39.8458 -88.1289 90° East 507 583 39,000  Level Kansas City Center
08:32PM 39.8419 -88.0664 95° East 504 580 39,000  Level Indianapolis Center
08:33PM 39.8411 -87.8847 90° East 504 580 39,000  Level Indianapolis Center
08:34PM 39.8381 -87.6658 91° East 504 580 39,000  Level Indianapolis Center
08:35PM 39.8356 -87.4831 91° East 506 582 39,000  Level Indianapolis Center
08:36PM 39.8336 -87.3003 91° East 506 582 39,000  Level Indianapolis Center
08:37PM 39.8161 -87.1186 97° East 508 585 39,000 -60 Level Indianapolis Center
08:38PM 39.7919 -86.9369 100° East 510 587 38,900 -540 Descending Indianapolis Center
08:39PM 39.7681 -86.7536 100° East 516 594 38,000 -960 Descending Indianapolis Center
08:40PM 39.7447 -86.5736 100° East 510 587 37,000 -1,020 Descending Indianapolis Center
08:42PM 39.7739 -86.3828 79° East 496 571 36,000 -900 Descending Indianapolis Center
08:43PM 39.8089 -86.2092 75° East 495 570 35,200 -900 Descending Indianapolis Center
08:44PM 39.8439 -86.0419 75° East 491 565 34,200 -960 Descending Indianapolis Center
08:45PM 39.8781 -85.8706 75° East 489 563 33,300 -960 Descending Indianapolis Center
08:46PM 39.9122 -85.6972 76° East 494 568 32,300 -1,020 Descending Indianapolis Center
08:47PM 39.9456 -85.5253 76° East 493 567 31,300 -960 Descending Indianapolis Center
08:48PM 39.9786 -85.3519 76° East 494 568 30,400 -960 Descending Indianapolis Center
08:49PM 40.0114 -85.1789 76° East 493 567 29,400 -840 Descending Indianapolis Center
08:50PM 40.0517 -84.9706 76° East 495 570 28,800 -780 Descending Indianapolis Center
08:51PM 40.0831 -84.8039 76° East 511 588 27,900 -1,140 Descending Indianapolis Center
08:52PM 40.1169 -84.6186 76° East 517 595 26,500 -1,440 Descending Indianapolis Center
08:53PM 40.1514 -84.4394 76° East 505 581 25,000 -1,500 Descending Indianapolis Center
08:54PM 40.1833 -84.2647 76° East 492 566 23,500 -1,860 Descending Indianapolis Center
08:55PM 40.2114 -84.1031 77° East 448 516 21,300 -2,220 Descending Indianapolis Center
08:56PM 40.2369 -83.9594 77° East 406 467 19,000 -2,340 Descending Indianapolis Center
08:57PM 40.2628 -83.8119 77° East 373 429 16,700 -2,340 Descending Indianapolis Center
08:58PM 40.2842 -83.6919 77° East 368 423 14,300 -2,400 Descending Indianapolis Center
08:59PM 40.2544 -83.5653 107° East 366 421 11,800 -2,220 Descending Indianapolis Center
09:00PM 40.2031 -83.4572 122° Southeast 329 379 9,900 -2,100 Descending Indianapolis Center
09:01PM 40.1608 -83.3758 124° Southeast 289 333 7,900 -2,160 Descending Indianapolis Center
09:02PM 40.1031 -83.3033 136° Southeast 284 327 5,800 -2,160 Descending Indianapolis Center
09:03PM 40.0414 -83.2578 151° Southeast 251 289 3,600 -1,440 Descending Indianapolis Center
09:04PM 40.0475 -83.2014 82° East 155 178 2,900 -780 Descending Indianapolis Center
09:05PM 40.0744 -83.1544 53° Northeast 162 186 2,000 -780 Descending Indianapolis Center
09:06PM 40.0753 -83.1058 89° East 141 162 1,300 -480 Descending Indianapolis Center
09:07PM 40.0775 -83.0533 87° East 137 158 1,100 -240 Descending Indianapolis Center